Flag for Maldives Weather past 2 weeks in Male, Maldives

Now
88 °F

Passing clouds.


Feels Like: 102 °F
Forecast: 85 / 90 °F
Wind: 10 mph from Northwest

Location: Male Airport


UV Index: 10 (Very high)

Visibility: N/A


Pressure: 29.92 "Hg

Humidity: 75%

Dew point: 79 °F

Location of MaleLocation

Historic Weather in Male

°F

Male temperature yesterday

Maximum temperature yesterday: 90 °F (at 11:00 AM)
Minimum temperature yesterday: 84 °F (at 12:00 AM)
Average temperature yesterday: 86 °F

Past Weeks' High & Low Weather Summary

 TemperatureHumidityPressure
High90 °F (Apr 4, 2:00 PM)94% (Apr 7, 5:00 AM)29.98 "Hg (Apr 7, 5:00 AM)
Low79 °F (Apr 7, 5:00 AM)40% (Apr 7, 12:00 PM)29.77 "Hg (Apr 4, 3:00 PM)
Average85 °F77%29.87 "Hg
* Reported Apr 4 9:00 AM — Apr 19 9:00 AM, Male, Weather by CustomWeather, © 2014

Note: Actual official high and low records may vary slightly from our data, if they occured in-between our weather recording intervals... More about our weather records

Advertising

Historic Weather Conditions — Data for Previous 24 hours

 ConditionsComfort  
Time TempWeatherWind HumidityBarometerVisibility
9:00 AM
Apr 19
88 °FPassing clouds.9 mph70%29.92 "HgN/A
8:00 AM86 °FPassing clouds.10 mph75%29.89 "HgN/A
7:00 AM86 °FPassing clouds.10 mph75%29.86 "HgN/A
6:00 AM84 °FPassing clouds.10 mph79%29.86 "HgN/A
5:00 AM84 °FPassing clouds.12 mph79%29.83 "HgN/A
4:00 AM84 °FPassing clouds.10 mph79%29.83 "HgN/A
3:00 AM84 °FPassing clouds.10 mph79%29.83 "HgN/A
2:00 AM84 °FPassing clouds.8 mph79%29.86 "HgN/A
1:00 AM84 °FPassing clouds.8 mph74%29.89 "HgN/A
11:00 PM
Apr 18
86 °FPassing clouds.8 mph75%29.92 "HgN/A
10:00 PM86 °FPassing clouds.10 mph75%29.92 "HgN/A
9:00 PM86 °FPassing clouds.10 mph75%29.89 "HgN/A
8:00 PM86 °FPassing clouds.12 mph75%29.89 "HgN/A
7:00 PM86 °FPassing clouds.10 mph75%29.86 "HgN/A
6:00 PM86 °FPassing clouds.10 mph70%29.83 "HgN/A
5:00 PM88 °FPassing clouds.10 mph66%29.83 "HgN/A
4:00 PM88 °FScattered clouds.9 mph66%29.83 "HgN/A
3:00 PM90 °FPassing clouds.8 mph67%29.83 "HgN/A
2:00 PM90 °FPassing clouds.7 mph63%29.86 "HgN/A
1:00 PM90 °FPassing clouds.8 mph67%29.86 "HgN/A
12:00 PM90 °FPassing clouds.9 mph67%29.89 "HgN/A
11:00 AM90 °FPassing clouds.9 mph67%29.92 "HgN/A
10:00 AM88 °FPassing clouds.8 mph70%29.92 "HgN/A
Weather by CustomWeather, © 2014

See weather overview